This is the latest recevied weather packets stored in our database for station/object WB0OCV. If no packets are shown the sender has not sent any weather packets the latest 10 day(s).
| Time | Temp. | Humidity | Pressure | Rain* | Wind** | Luminosity | Snow |
|---|---|---|---|---|---|---|---|
| 1778267469 | 16.11° C | 54% | 1011.4 hPa | 0 mm | - | 650 W/m² | - |
| 1778267167 | 16.67° C | 54% | 1011.4 hPa | 0 mm | - | 669 W/m² | - |
| 1778266863 | 16.11° C | 55% | 1011.5 hPa | 0 mm | - | 678 W/m² | - |
| 1778266560 | 16.67° C | 53% | 1011.4 hPa | 0 mm | - | 688 W/m² | - |
| 1778266257 | 16.67° C | 52% | 1011.4 hPa | 0 mm | - | 698 W/m² | - |
| 1778265955 | 16.11° C | 49% | 1011.4 hPa | 0 mm | - | 708 W/m² | - |
| 1778265652 | 16.11° C | 47% | 1011.4 hPa | 0 mm | - | 716 W/m² | - |
| 1778265348 | 15.56° C | 47% | 1011.5 hPa | 0 mm | - | 725 W/m² | - |
| 1778265044 | 15.56° C | 50% | 1011.5 hPa | 0 mm | - | 736 W/m² | - |
| 1778264741 | 16.11° C | 48% | 1011.6 hPa | 0 mm | - | 743 W/m² | - |
| 1778264438 | 16.11° C | 47% | 1011.6 hPa | 0 mm | - | 747 W/m² | - |
| 1778264138 | 17.22° C | 46% | 1011.8 hPa | 0 mm | - | 757 W/m² | - |
| 1778263836 | 16.67° C | 47% | 1011.5 hPa | 0 mm | - | 764 W/m² | - |
| 1778263532 | 16.67° C | 48% | 1011.6 hPa | 0 mm | - | 766 W/m² | - |
| 1778263229 | 17.22° C | 47% | 1011.6 hPa | 0 mm | - | 777 W/m² | - |
| 1778262925 | 17.22° C | 45% | 1011.7 hPa | 0 mm | - | 786 W/m² | - |
| 1778262623 | 17.22° C | 48% | 1011.7 hPa | 0 mm | - | 791 W/m² | - |
| 1778262320 | 17.22° C | 44% | 1011.5 hPa | 0 mm | - | 794 W/m² | - |
| 1778262017 | 17.22° C | 44% | 1011.6 hPa | 0 mm | - | 800 W/m² | - |
| 1778261714 | 16.11° C | 44% | 1011.6 hPa | 0 mm | - | 805 W/m² | - |
| 1778261410 | 16.67° C | 47% | 1011.8 hPa | 0 mm | - | 808 W/m² | - |
| 1778261107 | 16.67° C | 44% | 1011.5 hPa | 0 mm | - | 814 W/m² | - |
| 1778260803 | 16.67° C | 50% | 1011.6 hPa | 0 mm | - | 818 W/m² | - |
| 1778260500 | 16.11° C | 43% | 1011.6 hPa | 0 mm | - | 820 W/m² | - |
| 1778260196 | 16.11° C | 44% | 1011.6 hPa | 0 mm | - | 823 W/m² | - |
* Rain latest hour (hover to see other rain measurements)
** Current wind speed in m/s (hover to see current wind gust speed)